This demonstration page uses our WeatherBlox Daily Observations layout. Learn more.

41.55636, -103.73856

Hourly Observations for September 14, 2017

Temp ( °F °C ) Dew Point ( °F °C ) Humidity (%) Winds ( mph kmh ) Pressure ( in mb ) Visibility ( mi km ) Precip ( " mm )
12:53 am 00:53 Clear 60 15.6 53 11.7 78 78 NNE 6 9 29.65 1004 10 16.0934 0 0
1:53 am 01:53 Clear 61 16.1 49 9.4 65 65 NNW 6 9 29.64 1004 10 16.0934 0 0
2:53 am 02:53 Clear 59 15 48 8.9 67 67 N 7 11 29.64 1004 10 16.0934 0 0
3:53 am 03:53 Clear 58 14.4 49 9.4 72 72 N 6 9 29.65 1004 10 16.0934 0 0
4:53 am 04:53 Clear 57 13.9 47 8.3 69 69 N 3 6 29.66 1005 10 16.0934 0 0
5:53 am 05:53 Clear 56 13.3 46 7.8 70 70 N 3 6 29.69 1005 10 16.0934 0 0
6:53 am 06:53 Sunny 56 13.3 47 8.3 72 72 W 5 7 29.73 1007 10 16.0934 0 0
7:53 am 07:53 Sunny 62 16.7 48 8.9 60 60 undefined N/A 29.73 1007 10 16.0934 0 0
8:53 am 08:53 Partly Cloudy 68 20 46 7.8 45 45 W 7 11 29.74 1007 10 16.0934 0 0
9:53 am 09:53 Hazy 73 22.8 46 7.8 38 38 WNW 9 15 29.74 1007 6 9.65604 0 0
10:53 am 10:53 Hazy 76 24.4 43 6.1 31 31 W 7 11 29.73 1007 4 6.43736 0 0
11:53 am 11:53 Hazy 80 26.7 43 6.1 27 27 WNW 10 17 29.72 1006 4 6.43736 0 0
12:53 pm 12:53 Hazy 83 28.3 42 5.6 24 24 WNW 6 9 29.7 1006 4 6.43736 0 0
1:53 pm 13:53 Hazy 86 30 43 6.1 22 22 VRB 3 6 29.66 1004 6 9.65604 0 0
2:53 pm 14:53 Sunny 87 30.6 42 5.6 21 21 VRB 6 9 29.65 1004 8 12.87472 0 0
3:53 pm 15:53 Sunny 86 30 43 6.1 22 22 S 9 15 29.65 1004 8 12.87472 0 0
4:53 pm 16:53 Mostly Cloudy 83 28.3 43 6.1 24 24 SW 3 6 29.65 1004 10 16.0934 0 0
5:53 pm 17:53 Mostly Cloudy with Light Rain 78 25.6 46 7.8 32 32 N 7 11 29.68 1005 10 16.0934 0 0.0254
6:53 pm 18:53 Partly Cloudy 76 24.4 48 8.9 37 37 ENE 3 6 29.69 1005 10 16.0934 0 0.0254
7:53 pm 19:53 Mostly Cloudy 71 21.7 51 10.6 49 49 NNE 6 9 29.69 1005 10 16.0934 0 0
8:53 pm 20:53 Partly Cloudy 70 21.1 51 10.6 51 51 ENE 8 13 29.67 1005 9 14.48406 0 0
9:53 pm 21:53 Mostly Clear 68 20 52 11.1 57 57 SSE 9 15 29.67 1005 8 12.87472 0 0
10:53 pm 22:53 Hazy 68 20 54 12.2 61 61 ESE 10 17 29.68 1005 6 9.65604 0 0
11:53 pm 23:53 Mostly Cloudy 69 20.6 51 10.6 53 53 ESE 9 15 29.59 1002 10 16.0934 0 0.0254

Powered by AerisWeather